Flag for U.S.A. Weather past 2 weeks in Kalamazoo, Michigan, U.S.A.

Now
23 °F

Overcast.


Feels Like: 12 °F
Forecast: 17 / 29 °F
Wind: 12 mph from West

Location: Kalamazoo / Battle Creek International Airport

Current Time: Mar 2, 2015 at 1:08:34 AM

Latest Report: Mar 1, 2015 at 11:53 PM


Visibility: 7 mi

Pressure: 30.31 "Hg

Humidity: 78%

Dew point: 17 °F

Location of KalamazooLocation

Historic Weather in Kalamazoo — Graph

°F

Kalamazoo temperature yesterday

Maximum temperature yesterday: 26 °F (at 4:53 PM)
Minimum temperature yesterday: 10 °F (at 6:53 AM)
Average temperature yesterday: 19 °F

Past Weeks' High & Low Weather Summary

 TemperatureHumidityPressure
High29 °F (Feb 21, 4:53 PM)88% (Feb 21, 8:53 AM)30.79 "Hg (Feb 21, 8:53 AM)
Low-14 °F (Feb 20, 1:01 AM)33% (Feb 15, 2:53 PM)29.66 "Hg (Feb 24, 3:57 PM)
Average10 °F66%30.25 "Hg
* Reported Feb 14 11:53 PM — Mar 1 11:53 PM, Kalamazoo, Weather by CustomWeather, © 2015

Note: Actual official high and low records may vary slightly from our data, if they occured in-between our weather recording intervals... More about our weather records

Advertising

Kalamazoo weather history for previous 24 hours

 ConditionsComfort  
Time TempWeatherWind HumidityBarometerVisibility
11:53 PM
Sun, Mar 1
23 °FOvercast.12 mph78%30.31 "Hg7 mi
10:53 PM24 °FOvercast.15 mph75%30.30 "Hg9 mi
9:53 PM24 °FOvercast.13 mph75%30.28 "Hg10 mi
8:53 PM24 °FOvercast.8 mph71%30.28 "Hg10 mi
7:53 PM24 °FOvercast.16 mph71%30.28 "Hg10 mi
6:53 PM24 °FOvercast.10 mph71%30.28 "Hg10 mi
5:53 PM24 °FPartly sunny.8 mph68%30.27 "Hg10 mi
4:53 PM26 °FOvercast.9 mph63%30.28 "Hg10 mi
3:53 PM25 °FOvercast.9 mph69%30.30 "Hg10 mi
2:53 PM24 °FPartly sunny.3 mph68%30.31 "Hg10 mi
1:53 PM22 °FLight snow. Mostly cloudy.No wind78%30.33 "Hg3 mi
12:53 PM22 °FBroken clouds.6 mph75%30.37 "Hg10 mi
11:53 AM20 °FSunny.7 mph78%30.38 "Hg8 mi
10:53 AM18 °FSunny.3 mph80%30.40 "Hg8 mi
9:53 AM16 °FPartly sunny.5 mph84%30.41 "Hg7 mi
8:53 AM14 °FIce fog.No wind87%30.42 "Hg4 mi
7:53 AM12 °FIce fog.No wind88%30.44 "Hg4 mi
6:53 AM10 °FIce fog.No wind84%30.43 "Hg4 mi
5:53 AM12 °FIce fog.No wind84%30.44 "Hg6 mi
4:53 AM12 °FLight snow. Ice fog.No wind84%30.44 "Hg4 mi
3:53 AM14 °FLight snow. Ice fog.No wind84%30.44 "Hg5 mi
2:53 AM15 °FLight snow. Overcast.5 mph80%30.47 "Hg3 mi
1:53 AM15 °FLight snow. Overcast.No wind80%30.50 "Hg3 mi
Weather by CustomWeather, © 2015

See weather overviewHow to use our weather pages